Volver al catálogo

STARLINK-30499

ActivoComunicacionesVLEO
NORAD 57918·PAYLOAD·🇺🇸 United States

Lanzado Sep 24, 2023 desde Cape Canaveral Space Force Station

Loading…

Próximos Pases (próximas 24 horas)

TLE

ActualizadoSource: CelesTrak SupGP

Época: Sep 14, 2026, 21:10 UTC

1 57918C 23147F   26257.88243056  .00007768  00000+0  28137-3 0  2573
2 57918  43.0020 191.7601 0001185 261.3925 198.3481 15.27572027    12

Sigue STARLINK-30499 en tiempo real con AllMySat

Download on the App Store